TimeMDT,TemperatureF,Dew PointF,Humidity,Sea Level PressureIn,VisibilityMPH,Wind Direction,Wind SpeedMPH,Gust SpeedMPH,PrecipitationIn,Events,Conditions,WindDirDegrees,DateUTC
12:15 AM,42.8,32.0,66,30.23,10.0,NNW,11.5,-,N/A,,Clear,340,2012-10-12 06:15:00
12:34 AM,41.0,32.0,70,30.24,10.0,North,9.2,-,N/A,,Clear,350,2012-10-12 06:34:00
12:55 AM,41.0,32.0,70,30.22,10.0,NNW,8.1,-,N/A,,Clear,340,2012-10-12 06:55:00
1:15 AM,41.0,32.0,70,30.22,10.0,NNW,8.1,-,N/A,,Clear,330,2012-10-12 07:15:00
1:35 AM,41.0,32.0,70,30.21,10.0,NNW,10.4,-,N/A,,Clear,340,2012-10-12 07:35:00
2:15 AM,41.0,32.0,70,30.20,10.0,NW,9.2,-,N/A,,Clear,320,2012-10-12 08:15:00
2:31 AM,41.0,32.0,70,30.19,10.0,NNW,5.8,-,N/A,,Clear,330,2012-10-12 08:31:00
2:55 AM,39.2,32.0,75,30.18,10.0,North,6.9,-,N/A,,Clear,350,2012-10-12 08:55:00
3:13 AM,37.4,32.0,81,30.17,10.0,NNW,6.9,-,N/A,,Clear,340,2012-10-12 09:13:00
3:35 AM,37.4,32.0,81,30.16,10.0,NW,5.8,-,N/A,,Clear,320,2012-10-12 09:35:00
3:54 AM,37.4,32.0,81,30.15,10.0,NNW,13.8,-,N/A,,Clear,330,2012-10-12 09:54:00
4:15 AM,37.4,32.0,81,30.14,10.0,NNW,12.7,-,N/A,,Clear,340,2012-10-12 10:15:00
4:55 AM,35.6,32.0,87,30.15,10.0,NNW,6.9,-,N/A,,Clear,340,2012-10-12 10:55:00
5:15 AM,35.6,32.0,87,30.15,10.0,North,8.1,-,N/A,,Clear,350,2012-10-12 11:15:00
5:35 AM,33.8,30.2,87,30.16,10.0,NNW,4.6,-,N/A,,Clear,330,2012-10-12 11:35:00
5:48 AM,35.6,30.2,81,30.15,20.0,NNW,3.5,-,N/A,,Scattered Clouds,330,2012-10-12 11:48:00
5:55 AM,35.6,30.2,81,30.15,10.0,North,4.6,-,N/A,,Clear,350,2012-10-12 11:55:00
6:48 AM,33.8,30.2,87,30.15,15.0,Calm,Calm,-,N/A,,Scattered Clouds,0,2012-10-12 12:48:00
7:55 AM,37.4,30.2,75,30.14,15.0,Calm,Calm,-,N/A,,Mostly Cloudy,0,2012-10-12 13:55:00
8:46 AM,37.4,30.2,75,30.14,20.0,Calm,Calm,-,N/A,,Mostly Cloudy,0,2012-10-12 14:46:00
9:53 AM,42.8,30.2,61,30.12,25.0,Variable,3.5,-,N/A,,Mostly Cloudy,0,2012-10-12 15:53:00
11:50 AM,46.4,32.0,57,30.07,15.0,Calm,Calm,-,N/A,,Overcast,0,2012-10-12 17:50:00
12:48 PM,48.2,32.0,54,30.09,15.0,Variable,4.6,-,N/A,,Overcast,0,2012-10-12 18:48:00
1:53 PM,50.0,33.8,54,30.00,15.0,NNW,5.8,-,N/A,,Scattered Clouds,340,2012-10-12 19:53:00
2:51 PM,57.2,35.6,44,29.95,15.0,Calm,Calm,-,N/A,,Scattered Clouds,0,2012-10-12 20:51:00
3:51 PM,62.6,37.4,39,29.92,10.0,East,4.6,-,N/A,,Mostly Cloudy,100,2012-10-12 21:51:00
4:52 PM,59.0,35.6,42,29.96,10.0,WSW,6.9,-,N/A,Rain-Thunderstorm,Light Thunderstorms and Rain,240,2012-10-12 22:52:00
5:24 PM,57.2,44.6,63,29.92,20.0,SW,4.6,-,N/A,Rain,Light Rain,230,2012-10-12 23:24:00
5:50 PM,57.2,44.6,63,29.92,30.0,Calm,Calm,-,N/A,,Mostly Cloudy,0,2012-10-12 23:50:00
6:47 PM,53.6,41.0,62,29.93,25.0,North,6.9,-,N/A,,Mostly Cloudy,10,2012-10-13 00:47:00
7:58 PM,50.0,39.2,66,29.93,20.0,West,6.9,-,N/A,,Mostly Cloudy,260,2012-10-13 01:58:00
8:47 PM,50.0,39.2,66,29.93,20.0,NW,3.5,-,N/A,,Mostly Cloudy,310,2012-10-13 02:47:00
9:47 PM,51.8,41.0,67,29.95,20.0,South,3.5,-,N/A,,Mostly Cloudy,180,2012-10-13 03:47:00
11:00 PM,50.0,41.0,71,29.94,10.0,NW,8.1,-,N/A,Thunderstorm,Scattered Clouds,310,2012-10-13 05:00:00